Location: College Rock
(37.2713°N, 119.1740°W)
Time: 04:16:33
(UTC+00:00)

Cosmos 2369 - Pass Details

Date: 29 October 2020
Orbit: 840 x 855 km, 71.0° (Epoch: 23 November)

Event Time Altitude Azimuth Distance (km) Brightness Sun altitude
Exits shadow 12:08:19 20° 348° (NNW) 1,858 5.4 -26.5°
Maximum altitude 12:12:16 65° 66° (ENE) 923 4.0 -25.7°
Drops below altitude 10° 12:17:51 10° 148° (SSE) 2,448 6.5 -24.6°
Sets 12:20:18 0° 151° (SSE) 3,379 7.2 -24.1°
